This is the latest recevied weather packets stored in our database for station/object IW0REF-9. If no packets are shown the sender has not sent any weather packets the latest 10 day(s).
| Time | Temp. | Humidity | Pressure | Rain* | Wind** | Luminosity | Snow |
|---|---|---|---|---|---|---|---|
| 1777991897 | 20° C | 40% | 999 hPa | - | - | - | - |
| 1777990997 | 19.44° C | 40% | 999.2 hPa | - | - | - | - |
| 1777989197 | 20° C | 41% | 999.3 hPa | - | - | - | - |
| 1777988297 | 20° C | 41% | 999.6 hPa | - | - | - | - |
| 1777987401 | 19.44° C | 41% | 999.5 hPa | - | - | - | - |
| 1777986497 | 19.44° C | 42% | 999.4 hPa | - | - | - | - |
| 1777985597 | 18.89° C | 42% | 999.5 hPa | - | - | - | - |
| 1777984697 | 18.33° C | 42% | 999.9 hPa | - | - | - | - |
| 1777983796 | 18.33° C | 43% | 1000 hPa | - | - | - | - |
| 1777982896 | 17.78° C | 43% | 1000 hPa | - | - | - | - |
| 1777981996 | 18.89° C | 42% | 999.9 hPa | - | - | - | - |
| 1777981096 | 17.78° C | 44% | 1000 hPa | - | - | - | - |
| 1777980196 | 17.78° C | 44% | 1000.2 hPa | - | - | - | - |
| 1777979296 | 17.78° C | 43% | 1000.2 hPa | - | - | - | - |
| 1777978396 | 17.22° C | 44% | 1000.2 hPa | - | - | - | - |
| 1777977496 | 17.22° C | 44% | 1000.1 hPa | - | - | - | - |
| 1777976596 | 17.78° C | 43% | 1000 hPa | - | - | - | - |
| 1777975696 | 17.78° C | 44% | 1000.1 hPa | - | - | - | - |
| 1777974796 | 16.67° C | 46% | 1000.1 hPa | - | - | - | - |
| 1777966501 | 15° C | 46% | 1000 hPa | - | - | - | - |
| 1777965601 | 15° C | 46% | 999.8 hPa | - | - | - | - |
| 1777964700 | 15° C | 46% | 999.8 hPa | - | - | - | - |
| 1777963800 | 15° C | 45% | 999.8 hPa | - | - | - | - |
| 1777962900 | 15° C | 45% | 999.6 hPa | - | - | - | - |
| 1777961999 | 15° C | 45% | 999.4 hPa | - | - | - | - |
* Rain since midnight (hover to see other rain measurements)
** Current wind speed in m/s (hover to see current wind gust speed)